Theta_e
321 319 319 318 318 318 318 319 320 321 322 322 321 322 322 323 323 323 324 323 323 322 321 319 319 320 323 326 335 353 350 348 339 350 348 350 348 347 346 346 345 346 340 332
322 320 319 319 319 318 318 318 319 322 322 323 322 322 323 323 324 324 324 324 324 323 322 321 320 320 325 347 352 352 355 353 351 350 349 345 342 332 334 335 341 339 335 332
320 320 320 319 318 318 318 317 319 322 322 322 322 322 323 324 323 323 323 322 323 323 323 321 321 340 342 350 355 355 349 347 347 346 343 339 336 334 332 330 333 334 331 331
319 320 320 318 318 318 318 318 318 321 322 322 322 322 325 324 325 324 323 323 324 325 323 325 330 334 334 350 350 349 330 330 334 335 340 336 334 332 332 331 329 327 326 326
321 320 320 319 318 318 317 318 318 320 321 322 322 322 324 326 325 324 325 324 325 325 325 327 331 336 335 346 344 337 331 330 331 337 334 333 328 329 330 329 329 332 332 326
321 321 320 320 319 317 318 320 321 321 321 323 322 322 323 324 326 325 325 324 326 326 325 327 328 328 330 336 341 345 342 337 332 331 330 330 327 327 330 333 334 338 337 336
321 321 321 320 320 319 319 321 321 323 323 323 322 322 324 326 325 325 326 326 326 325 328 329 330 330 329 329 328 338 342 343 341 338 329 326 326 327 333 339 336 339 343 343
324 324 322 321 321 320 320 321 321 325 324 322 322 324 324 326 325 325 325 324 325 326 328 328 330 330 329 331 329 328 331 330 334 332 331 329 329 333 343 345 340 342 342 343
321 324 321 320 320 321 321 321 322 324 324 325 324 324 326 326 326 325 324 325 327 327 327 328 331 333 335 338 340 338 333 334 333 339 342 346 348 344 347 343 345 344 344 343
322 326 321 321 321 321 321 321 322 322 325 327 325 325 325 327 326 325 324 326 327 326 326 328 330 334 336 337 339 340 342 343 344 344 343 343 343 341 342 344 343 343 342 341
320 326 328 322 323 321 320 322 323 323 325 328 328 330 327 327 330 329 326 327 326 325 325 326 328 329 331 333 333 334 335 336 337 338 339 340 340 341 340 324 327 335 334 335
322 326 327 327 323 324 324 321 322 328 328 325 331 331 328 329 328 328 324 326 325 325 325 325 325 326 327 327 329 329 328 329 333 333 334 334 335 336 335 334 334 335 335 333
325 328 330 329 327 325 327 323 323 326 329 330 331 333 327 328 329 326 324 323 325 324 325 326 326 325 325 326 325 324 324 324 326 328 331 332 333 333 333 333 333 332 332 331
325 328 329 331 329 327 328 327 325 326 332 329 328 330 328 326 325 324 326 325 325 325 325 325 324 325 324 324 323 323 322 322 321 321 319 320 322 323 324 326 325 324 323 324
325 326 326 326 324 324 324 324 327 327 324 328 327 327 328 322 322 321 321 319 319 319 319 321 322 325 325 325 323 321 320 318 319 319 320 319 318 318 319 318 318 318 317 316
325 324 322 326 326 322 321 320 325 326 327 325 326 326 324 321 321 321 320 320 320 320 319 320 323 322 321 320 319 319 317 316 316 316 316 315 314 314 314 314 314 314 314 314
321 320 320 320 322 322 320 318 320 325 325 324 325 323 323 322 321 319 319 319 319 320 320 320 320 319 318 317 317 316 315 314 314 314 314 314 314 314 313 312 312 311 311 311
319 319 319 320 318 318 320 319 318 319 317 317 318 321 321 320 319 318 318 318 318 317 317 317 317 316 316 315 315 314 314 314 314 313 313 313 313 312 311 311 311 310 309 309
317 320 322 320 319 319 319 320 321 320 319 321 322 322 320 319 319 318 317 317 317 317 316 315 315 315 314 314 314 314 313 313 313 312 312 311 310 310 309 309 308 308 308 307
316 318 322 319 321 319 323 320 318 319 325 321 321 320 320 319 319 319 317 316 315 315 314 315 314 314 314 313 313 313 312 312 311 311 310 309 308 308 307 307 307 306 308 309
318 319 320 319 320 318 320 319 317 320 323 320 319 318 318 318 318 317 316 316 315 315 314 313 312 312 312 312 311 310 309 309 308 308 307 307 307 306 306 307 307 307 307 307
318 320 319 321 320 319 318 317 320 322 319 316 317 316 316 315 315 315 314 314 313 313 312 312 311 310 309 308 307 306 306 306 306 306 306 305 305 306 306 305 304 303 303 303
319 317 320 319 319 320 318 319 318 318 316 316 314 314 314 314 313 313 312 312 311 310 309 309 308 307 306 306 305 305 305 305 305 304 304 304 303 303 301 301 301 301 302 302
317 318 318 318 319 318 317 317 316 315 314 314 313 313 312 312 311 311 310 308 307 307 307 306 306 306 305 305 304 303 304 303 303 302 301 300 298 298 298 300 300 301 301 301
317 316 315 316 318 316 315 314 313 312 312 311 311 310 309 309 308 307 306 305 305 304 304 303 303 303 302 302 301 301 299 299 299 299 299 297 297 298 299 299 299 299 301 301
315 315 316 317 316 316 315 312 311 310 309 308 308 307 306 305 304 304 305 305 303 302 301 300 299 299 298 298 297 297 296 296 296 296 296 296 297 297 297 297 300 301 301 302
Wind_Speed
26 16 22 26 24 19 21 22 20 15 19 16 15 17 17 16 19 15 16 14 15 16 18 27 33 30 30 29 29 21 15 18 36 22 21 19 19 22 22 22 20 15 16 6
19 25 24 23 24 24 22 23 19 15 17 15 12 15 15 16 13 16 14 8 11 16 16 15 26 34 32 20 27 28 20 24 23 24 16 14 10 2 6 10 23 19 15 11
25 18 25 25 23 24 24 22 19 16 8 10 13 13 16 15 14 20 7 7 10 4 9 16 24 22 18 19 23 26 22 22 22 22 24 14 14 14 15 9 14 15 19 1
23 26 25 24 26 23 21 20 19 15 14 14 16 14 17 19 19 11 11 8 3 8 11 13 20 19 21 27 26 26 23 17 24 20 22 19 18 23 26 20 25 26 21 17
24 22 21 22 26 23 19 17 18 17 14 13 17 11 13 11 15 9 12 7 9 2 8 14 9 14 6 23 28 30 26 23 23 27 18 19 18 22 21 21 28 36 35 38
23 24 19 19 21 17 18 18 18 18 15 15 20 16 12 9 13 14 13 15 12 5 4 7 9 5 7 23 27 30 31 27 26 22 20 21 17 22 29 33 35 35 33 32
19 21 18 19 15 20 19 15 10 11 12 14 19 17 13 12 8 13 15 19 13 5 11 9 13 12 11 7 1 24 21 24 25 27 27 25 28 31 26 24 34 31 30 31
17 19 28 21 22 18 18 16 10 15 13 14 19 18 16 18 11 17 16 15 9 6 13 9 9 8 9 7 5 6 13 21 24 26 29 30 30 37 32 27 27 29 31 29
10 17 21 21 16 22 19 19 20 17 12 7 8 13 13 14 12 13 15 12 12 9 9 7 9 6 7 7 5 3 7 10 15 22 28 27 31 35 33 26 25 31 25 28
3 7 13 14 14 17 15 15 14 9 13 15 12 6 4 8 10 12 11 13 12 7 10 9 9 11 11 11 11 7 3 1 6 11 13 17 20 21 20 19 21 22 19 23
17 4 10 16 17 20 14 15 13 10 10 10 9 1 8 4 10 8 9 15 14 7 12 10 11 7 10 13 15 16 14 13 11 9 3 4 5 12 19 12 12 17 9 13
16 4 6 10 11 4 12 19 18 8 14 6 3 2 10 11 7 14 18 23 10 12 13 13 11 11 11 14 15 13 13 16 13 10 11 12 11 9 9 5 3 3 3 8
5 9 4 8 7 6 13 15 11 4 4 7 4 4 2 11 11 13 23 12 11 9 7 14 11 9 11 10 11 12 11 12 12 10 6 6 9 9 9 5 4 3 3 2
2 5 5 4 2 3 8 4 10 9 4 3 8 4 0 10 15 19 24 8 6 9 4 5 4 7 7 7 7 8 9 8 9 7 6 3 2 3 2 5 8 9 9 10
0 3 13 5 8 3 6 7 9 11 10 5 9 10 15 8 2 14 23 8 6 8 7 5 7 13 10 8 6 6 7 8 4 4 3 4 4 2 4 7 9 11 15 17
13 6 11 3 10 7 4 6 6 9 14 8 9 6 13 26 30 13 7 8 11 11 9 8 15 11 14 11 9 7 5 7 7 8 7 6 6 8 10 12 14 14 17 20
1 2 1 2 11 11 10 14 12 13 18 12 8 10 10 11 8 8 7 7 7 8 13 13 13 11 8 8 6 6 7 9 9 10 9 9 10 12 15 16 19 21 23 27
5 2 4 2 6 3 8 7 8 5 7 8 6 10 10 12 11 11 12 10 9 8 9 10 9 7 5 5 6 8 9 10 11 12 12 12 13 14 15 17 21 24 27 30
5 4 1 1 5 1 7 5 5 5 6 8 12 12 11 11 8 13 10 7 5 4 4 5 4 5 6 8 9 9 12 14 14 14 15 15 15 17 19 21 24 27 29 32
4 5 3 3 2 2 8 9 7 3 5 10 13 7 6 3 3 4 2 4 4 2 3 4 7 9 10 12 12 13 15 16 18 18 18 18 19 20 21 23 28 30 27 25
3 3 3 5 2 2 6 6 3 4 4 9 10 9 7 5 6 6 2 3 3 4 5 6 8 12 14 13 14 15 18 19 20 20 20 20 21 23 23 23 22 24 28 31
4 5 4 3 4 5 1 4 3 5 8 15 9 7 5 3 3 4 5 5 6 7 8 11 12 14 15 16 17 20 21 21 21 21 22 23 22 21 20 25 29 26 24 29
5 1 3 5 1 8 13 14 12 15 11 9 9 3 4 5 7 7 8 9 11 13 14 15 17 18 17 17 17 19 20 21 22 22 21 21 24 26 25 24 27 30 25 24
6 8 2 3 7 7 15 12 12 9 9 4 3 3 4 7 10 11 11 11 13 14 14 14 14 15 16 16 18 21 21 18 18 20 24 29 30 26 26 26 24 23 21 22
3 3 1 2 8 11 9 12 8 7 5 2 5 6 8 10 11 10 12 14 12 13 16 17 18 19 21 20 20 19 18 20 24 29 34 31 26 25 24 21 21 20 17 15
3 5 3 2 8 10 8 6 5 5 6 7 8 9 10 11 13 16 11 12 13 16 17 20 19 19 18 17 18 20 23 30 33 32 26 23 22 21 21 20 19 12 14 14
Wind_Direction
206 219 215 216 224 226 245 241 226 242 235 178 222 245 231 242 254 258 244 244 226 246 248 223 219 222 230 237 223 216 185 190 200 200 189 202 207 222 221 222 235 239 254 246
203 223 223 219 221 230 237 252 251 247 236 187 203 240 244 246 249 246 254 298 231 228 225 225 204 215 223 196 199 211 194 188 193 192 187 188 196 230 237 261 254 266 279 299
213 215 223 227 222 226 225 235 244 252 237 267 262 255 253 260 246 252 211 243 278 297 202 209 211 172 174 192 204 215 221 218 219 222 204 212 258 286 259 239 241 252 254 199
217 236 202 221 232 221 228 223 244 234 239 241 201 249 248 226 227 202 213 204 30 15 164 168 168 189 200 196 207 212 213 215 215 219 215 218 226 210 248 220 254 264 257 257
226 221 233 221 226 227 231 218 221 242 242 248 253 255 263 224 181 202 188 152 108 8 30 43 155 165 213 207 209 205 207 210 209 212 220 215 237 226 231 230 246 250 252 241
225 248 226 219 236 221 219 232 221 216 224 229 233 242 245 232 207 190 181 144 112 81 77 49 50 81 201 215 213 212 207 206 210 222 225 228 257 250 234 232 224 234 244 231
228 228 244 246 233 209 227 217 217 222 226 238 225 224 235 240 240 193 149 121 125 130 94 44 32 11 4 353 290 189 204 219 225 229 233 236 247 239 257 245 226 231 228 222
210 224 216 207 210 209 215 216 219 215 217 236 222 223 216 228 155 113 102 95 117 117 73 50 56 2 346 347 322 247 227 231 234 242 241 237 242 235 240 236 229 240 239 237
238 264 201 217 210 217 200 211 232 250 275 257 255 248 81 101 121 135 143 152 112 102 98 71 64 34 42 31 23 342 253 246 234 231 234 241 239 240 241 253 245 237 235 233
289 238 222 221 238 245 246 216 228 250 242 245 249 210 107 183 154 162 158 136 123 133 111 101 71 81 70 62 47 38 43 281 180 215 246 244 247 249 236 237 246 248 223 213
220 92 278 228 221 216 203 218 242 245 272 253 218 65 352 17 49 47 15 143 138 136 123 117 107 94 72 64 67 62 64 51 47 35 5 330 288 234 229 251 263 267 124 163
180 173 244 233 224 306 288 218 213 220 248 250 44 231 326 347 80 70 53 303 138 108 108 92 93 90 91 88 79 58 59 72 86 87 101 96 100 97 82 96 139 237 123 160
229 169 198 220 291 241 250 231 248 318 45 245 235 149 331 343 348 130 141 197 223 156 99 101 97 84 76 69 90 77 52 56 59 69 82 97 90 89 113 109 114 129 143 179
66 240 235 169 88 152 264 340 229 201 191 183 216 187 21 9 353 349 283 184 103 137 104 7 45 138 152 138 53 78 72 53 44 26 360 352 319 336 323 261 264 271 275 263
321 41 302 121 148 226 260 299 307 269 224 156 254 235 140 105 11 221 274 354 331 325 326 297 287 106 112 115 110 32 45 11 32 55 13 359 330 276 290 286 289 287 282 280
197 196 241 139 219 169 215 268 266 289 293 230 191 235 161 177 186 223 28 3 19 357 330 346 79 80 73 74 65 58 26 8 3 349 342 345 315 305 301 306 307 302 297 290
239 308 283 273 193 157 232 211 219 200 224 222 205 98 139 127 106 69 50 56 47 28 34 53 64 68 58 47 40 20 355 348 341 329 323 320 314 318 317 306 295 288 284 283
337 325 281 269 67 215 79 30 10 349 223 226 212 98 86 76 92 91 82 68 60 45 37 39 45 51 41 16 346 339 330 326 319 315 315 313 311 303 295 287 286 289 290 288
332 290 87 195 195 246 152 79 48 28 107 47 72 67 86 74 80 77 89 69 56 50 8 357 339 334 328 321 312 309 309 311 310 309 310 308 304 299 293 293 291 288 289 291
147 313 119 204 240 265 80 60 38 19 108 27 90 108 108 127 246 109 110 89 64 24 339 319 300 295 301 303 299 304 300 303 305 307 304 302 301 299 294 291 293 300 304 302
139 120 173 224 176 281 116 98 341 216 101 68 91 74 70 42 61 117 143 280 281 279 284 286 287 287 296 299 302 303 302 302 302 301 302 301 297 297 302 306 293 283 282 286
139 164 198 229 194 236 152 116 351 94 75 85 86 69 76 46 339 285 294 289 288 283 282 289 287 294 300 301 302 304 299 296 299 299 299 299 300 297 289 284 288 291 290 287
170 202 187 181 210 126 84 88 75 86 99 96 110 88 25 337 312 308 305 312 313 311 306 302 298 299 300 302 298 300 300 298 295 295 293 288 283 286 292 287 286 294 296 291
186 129 157 218 48 82 90 99 97 95 99 74 18 3 323 307 300 304 306 309 306 301 310 312 312 308 308 305 302 303 299 289 281 278 282 288 294 294 294 298 300 303 302 302
153 237 172 176 165 155 99 99 103 94 70 12 340 333 320 313 305 306 299 295 300 314 314 314 313 304 300 298 295 295 306 291 285 286 293 298 299 302 305 306 305 300 300 304
8 31 209 58 59 91 104 97 73 47 25 5 354 339 323 314 305 304 296 317 322 314 311 306 302 299 299 301 295 288 288 286 292 294 297 300 305 311 313 314 314 310 311 311